Year,Month,Day,Hour,Minute,Value (Times are PST for temperature in C)
2009,09,21,00,00,9.40
2009,09,21,00,01,9.40
2009,09,21,00,02,9.40
2009,09,21,00,03,9.30
2009,09,21,00,04,9.30
2009,09,21,00,05,9.30
2009,09,21,00,06,9.20
2009,09,21,00,07,9.20
2009,09,21,00,08,9.20
2009,09,21,00,09,9.20
2009,09,21,00,10,9.20
2009,09,21,00,11,9.20
2009,09,21,00,12,9.20
2009,09,21,00,13,9.20
2009,09,21,00,14,9.20
2009,09,21,00,15,9.20
2009,09,21,00,16,9.20
2009,09,21,00,17,9.20
2009,09,21,00,18,9.20
2009,09,21,00,19,9.20
2009,09,21,00,20,9.20
2009,09,21,00,21,9.20
2009,09,21,00,22,9.20
2009,09,21,00,23,9.20
2009,09,21,00,24,9.20
2009,09,21,00,25,9.20
2009,09,21,00,26,9.20
2009,09,21,00,27,9.10
2009,09,21,00,28,9.10
2009,09,21,00,29,9.00
2009,09,21,00,30,9.00
2009,09,21,00,31,9.00
2009,09,21,00,32,8.90
2009,09,21,00,33,8.90
2009,09,21,00,34,8.90
2009,09,21,00,35,8.90
2009,09,21,00,36,8.90
2009,09,21,00,37,8.80
2009,09,21,00,38,8.80
2009,09,21,00,39,8.80
2009,09,21,00,40,8.80
2009,09,21,00,41,8.80
2009,09,21,00,42,8.70
2009,09,21,00,43,8.70
2009,09,21,00,44,8.70
2009,09,21,00,45,8.70
2009,09,21,00,46,8.70
2009,09,21,00,47,8.70
2009,09,21,00,48,8.70
2009,09,21,00,49,8.70
2009,09,21,00,50,8.70
2009,09,21,00,51,8.70
2009,09,21,00,52,8.70
2009,09,21,00,53,8.60
2009,09,21,00,54,8.60
2009,09,21,00,55,8.60
2009,09,21,00,56,8.60
2009,09,21,00,57,8.60
2009,09,21,00,58,8.60
2009,09,21,00,59,8.60
2009,09,21,01,00,8.70
2009,09,21,01,01,8.70
2009,09,21,01,02,8.70
2009,09,21,01,03,8.70
2009,09,21,01,04,8.70
2009,09,21,01,05,8.70
2009,09,21,01,06,8.70
2009,09,21,01,07,8.70
2009,09,21,01,08,8.70
2009,09,21,01,09,8.60
2009,09,21,01,10,8.60
2009,09,21,01,11,8.60
2009,09,21,01,12,8.60
2009,09,21,01,13,8.60
2009,09,21,01,14,8.70
2009,09,21,01,15,8.70
2009,09,21,01,16,8.70
2009,09,21,01,17,8.70
2009,09,21,01,18,8.70
2009,09,21,01,19,8.70
2009,09,21,01,20,8.70
2009,09,21,01,21,8.70
2009,09,21,01,22,8.70
2009,09,21,01,23,8.60
2009,09,21,01,24,8.60
2009,09,21,01,25,8.60
2009,09,21,01,26,8.60
2009,09,21,01,27,8.60
2009,09,21,01,28,8.60
2009,09,21,01,29,8.60
2009,09,21,01,30,8.60
2009,09,21,01,31,8.60
2009,09,21,01,32,8.60
2009,09,21,01,33,8.60
2009,09,21,01,34,8.50
2009,09,21,01,35,8.50
2009,09,21,01,36,8.50
2009,09,21,01,37,8.50
2009,09,21,01,38,8.50
2009,09,21,01,39,8.50
2009,09,21,01,40,8.50
2009,09,21,01,41,8.50
2009,09,21,01,42,8.50
2009,09,21,01,43,8.50
2009,09,21,01,44,8.50
2009,09,21,01,45,8.50
2009,09,21,01,46,8.40
2009,09,21,01,47,8.40
2009,09,21,01,48,8.40
2009,09,21,01,49,8.40
2009,09,21,01,50,8.40
2009,09,21,01,51,8.40
2009,09,21,01,52,8.40
2009,09,21,01,53,8.40
2009,09,21,01,54,8.40
2009,09,21,01,55,8.40
2009,09,21,01,56,8.40
2009,09,21,01,57,8.40
2009,09,21,01,58,8.40
2009,09,21,01,59,8.40
2009,09,21,02,00,8.40
2009,09,21,02,01,8.40
2009,09,21,02,02,8.40
2009,09,21,02,03,8.40
2009,09,21,02,04,8.30
2009,09,21,02,05,8.30
2009,09,21,02,06,8.30
2009,09,21,02,07,8.30
2009,09,21,02,08,8.30
2009,09,21,02,09,8.30
2009,09,21,02,10,8.30
2009,09,21,02,11,8.30
2009,09,21,02,12,8.30
2009,09,21,02,13,8.30
2009,09,21,02,14,8.30
2009,09,21,02,15,8.30
2009,09,21,02,16,8.30
2009,09,21,02,17,8.30
2009,09,21,02,18,8.30
2009,09,21,02,19,8.30
2009,09,21,02,20,8.20
2009,09,21,02,21,8.20
2009,09,21,02,22,8.20
2009,09,21,02,23,8.20
2009,09,21,02,24,8.20
2009,09,21,02,25,8.20
2009,09,21,02,26,8.20
2009,09,21,02,27,8.20
2009,09,21,02,28,8.20
2009,09,21,02,29,8.20
2009,09,21,02,30,8.10
2009,09,21,02,31,8.10
2009,09,21,02,32,8.10
2009,09,21,02,33,8.10
2009,09,21,02,34,8.10
2009,09,21,02,35,8.00
2009,09,21,02,36,8.00
2009,09,21,02,37,8.00
2009,09,21,02,38,8.00
2009,09,21,02,39,8.00
2009,09,21,02,40,8.00
2009,09,21,02,41,7.90
2009,09,21,02,42,7.90
2009,09,21,02,43,7.90
2009,09,21,02,44,7.90
2009,09,21,02,45,7.90
2009,09,21,02,46,7.90
2009,09,21,02,47,7.90
2009,09,21,02,48,7.90
2009,09,21,02,49,7.90
2009,09,21,02,50,7.90
2009,09,21,02,51,7.90
2009,09,21,02,52,7.90
2009,09,21,02,53,7.90
2009,09,21,02,54,7.90
2009,09,21,02,55,7.90
2009,09,21,02,56,7.90
2009,09,21,02,57,7.90
2009,09,21,02,58,8.00
2009,09,21,02,59,8.00
2009,09,21,03,00,7.90
2009,09,21,03,01,7.90
2009,09,21,03,02,7.90
2009,09,21,03,03,7.90
2009,09,21,03,04,7.90
2009,09,21,03,05,7.90
2009,09,21,03,06,7.80
2009,09,21,03,07,7.80
2009,09,21,03,08,7.80
2009,09,21,03,09,7.80
2009,09,21,03,10,7.80
2009,09,21,03,11,7.80
2009,09,21,03,12,7.70
2009,09,21,03,13,7.70
2009,09,21,03,14,7.70
2009,09,21,03,15,7.70
2009,09,21,03,16,7.70
2009,09,21,03,17,7.60
2009,09,21,03,18,7.60
2009,09,21,03,19,7.60
2009,09,21,03,20,7.60
2009,09,21,03,21,7.60
2009,09,21,03,22,7.60
2009,09,21,03,23,7.60
2009,09,21,03,24,7.60
2009,09,21,03,25,7.60
2009,09,21,03,26,7.60
2009,09,21,03,27,7.60
2009,09,21,03,28,7.60
2009,09,21,03,29,7.60
2009,09,21,03,30,7.60
2009,09,21,03,31,7.70
2009,09,21,03,32,7.70
2009,09,21,03,33,7.80
2009,09,21,03,34,7.80
2009,09,21,03,35,7.80
2009,09,21,03,36,7.80
2009,09,21,03,37,7.80
2009,09,21,03,38,7.80
2009,09,21,03,39,7.80
2009,09,21,03,40,7.80
2009,09,21,03,41,7.80
2009,09,21,03,42,7.80
2009,09,21,03,43,7.80
2009,09,21,03,44,7.90
2009,09,21,03,45,7.90
2009,09,21,03,46,7.90
2009,09,21,03,47,7.90
2009,09,21,03,48,7.90
2009,09,21,03,49,8.00
2009,09,21,03,50,8.00
2009,09,21,03,51,8.00
2009,09,21,03,52,8.00
2009,09,21,03,53,8.00
2009,09,21,03,54,8.00
2009,09,21,03,55,8.00
2009,09,21,03,56,8.00
2009,09,21,03,57,7.90
2009,09,21,03,58,7.90
2009,09,21,03,59,7.90
2009,09,21,04,00,7.80
2009,09,21,04,01,7.80
2009,09,21,04,02,7.80
2009,09,21,04,03,7.80
2009,09,21,04,04,7.70
2009,09,21,04,05,7.70
2009,09,21,04,06,7.70
2009,09,21,04,07,7.70
2009,09,21,04,08,7.70
2009,09,21,04,09,7.70
2009,09,21,04,10,7.60
2009,09,21,04,11,7.60
2009,09,21,04,12,7.60
2009,09,21,04,13,7.50
2009,09,21,04,14,7.50
2009,09,21,04,15,7.40
2009,09,21,04,16,7.40
2009,09,21,04,17,7.40
2009,09,21,04,18,7.40
2009,09,21,04,19,7.30
2009,09,21,04,20,7.30
2009,09,21,04,21,7.30
2009,09,21,04,22,7.30
2009,09,21,04,23,7.30
2009,09,21,04,24,7.30
2009,09,21,04,25,7.30
2009,09,21,04,26,7.30
2009,09,21,04,27,7.30
2009,09,21,04,28,7.30
2009,09,21,04,29,7.30
2009,09,21,04,30,7.30
2009,09,21,04,31,7.30
2009,09,21,04,32,7.30
2009,09,21,04,33,7.30
2009,09,21,04,34,7.30
2009,09,21,04,35,7.30
2009,09,21,04,36,7.30
2009,09,21,04,37,7.30
2009,09,21,04,38,7.30
2009,09,21,04,39,7.40
2009,09,21,04,40,7.40
2009,09,21,04,41,7.40
2009,09,21,04,42,7.40
2009,09,21,04,43,7.50
2009,09,21,04,44,7.50
2009,09,21,04,45,7.50
2009,09,21,04,46,7.50
2009,09,21,04,47,7.50
2009,09,21,04,48,7.50
2009,09,21,04,49,7.50
2009,09,21,04,50,7.50
2009,09,21,04,51,7.50
2009,09,21,04,52,7.50
2009,09,21,04,53,7.50
2009,09,21,04,54,7.50
2009,09,21,04,55,7.50
2009,09,21,04,56,7.50
2009,09,21,04,57,7.50
2009,09,21,04,58,7.50
2009,09,21,04,59,7.50
2009,09,21,05,00,7.60
2009,09,21,05,01,7.60
2009,09,21,05,02,7.60
2009,09,21,05,03,7.60
2009,09,21,05,04,7.60
2009,09,21,05,05,7.60
2009,09,21,05,06,7.60
2009,09,21,05,07,7.60
2009,09,21,05,08,7.50
2009,09,21,05,09,7.50
2009,09,21,05,10,7.40
2009,09,21,05,11,7.40
2009,09,21,05,12,7.40
2009,09,21,05,13,7.30
2009,09,21,05,14,7.30
2009,09,21,05,15,7.30
2009,09,21,05,16,7.40
2009,09,21,05,17,7.40
2009,09,21,05,18,7.40
2009,09,21,05,19,7.40
2009,09,21,05,20,7.40
2009,09,21,05,21,7.40
2009,09,21,05,22,7.40
2009,09,21,05,23,7.40
2009,09,21,05,24,7.40
2009,09,21,05,25,7.40
2009,09,21,05,26,7.40
2009,09,21,05,27,7.40
2009,09,21,05,28,7.30
2009,09,21,05,29,7.30
2009,09,21,05,30,7.30
2009,09,21,05,31,7.30
2009,09,21,05,32,7.30
2009,09,21,05,33,7.30
2009,09,21,05,34,7.30
2009,09,21,05,35,7.30
2009,09,21,05,36,7.30
2009,09,21,05,37,7.30
2009,09,21,05,38,7.20
2009,09,21,05,39,7.20
2009,09,21,05,40,7.20
2009,09,21,05,41,7.20
2009,09,21,05,42,7.20
2009,09,21,05,43,7.20
2009,09,21,05,44,7.20
2009,09,21,05,45,7.20
2009,09,21,05,46,7.20
2009,09,21,05,47,7.30
2009,09,21,05,48,7.30
2009,09,21,05,49,7.30
2009,09,21,05,50,7.30
2009,09,21,05,51,7.30
2009,09,21,05,52,7.30
2009,09,21,05,53,7.30
2009,09,21,05,54,7.30
2009,09,21,05,55,7.30
2009,09,21,05,56,7.30
2009,09,21,05,57,7.30
2009,09,21,05,58,7.30
2009,09,21,05,59,7.40
2009,09,21,06,00,7.40
2009,09,21,06,01,7.40
2009,09,21,06,02,7.40
2009,09,21,06,03,7.30
2009,09,21,06,04,7.30
2009,09,21,06,05,7.30
2009,09,21,06,06,7.40
2009,09,21,06,07,7.40
2009,09,21,06,08,7.40
2009,09,21,06,09,7.40
2009,09,21,06,10,7.50
2009,09,21,06,11,7.50
2009,09,21,06,12,7.60
2009,09,21,06,13,7.60
2009,09,21,06,14,7.60
2009,09,21,06,15,7.70
2009,09,21,06,16,7.70
2009,09,21,06,17,7.70
2009,09,21,06,18,7.80
2009,09,21,06,19,7.80
2009,09,21,06,20,7.80
2009,09,21,06,21,7.80
2009,09,21,06,22,7.80
2009,09,21,06,23,7.90
2009,09,21,06,24,7.90
2009,09,21,06,25,8.00
2009,09,21,06,26,8.10
2009,09,21,06,27,8.10
2009,09,21,06,28,8.20
2009,09,21,06,29,8.20
2009,09,21,06,30,8.30
2009,09,21,06,31,8.30
2009,09,21,06,32,8.30
2009,09,21,06,33,8.40
2009,09,21,06,34,8.40
2009,09,21,06,35,8.50
2009,09,21,06,36,8.50
2009,09,21,06,37,8.50
2009,09,21,06,38,8.50
2009,09,21,06,39,8.50
2009,09,21,06,40,8.50
2009,09,21,06,41,8.60
2009,09,21,06,42,8.60
2009,09,21,06,43,8.60
2009,09,21,06,44,8.60
2009,09,21,06,45,8.60
2009,09,21,06,46,8.70
2009,09,21,06,47,8.70
2009,09,21,06,48,8.60
2009,09,21,06,49,8.60
2009,09,21,06,50,8.60
2009,09,21,06,51,8.60
2009,09,21,06,52,8.60
2009,09,21,06,53,8.60
2009,09,21,06,54,8.60
2009,09,21,06,55,8.70
2009,09,21,06,56,8.70
2009,09,21,06,57,8.70
2009,09,21,06,58,8.70
2009,09,21,06,59,8.70
2009,09,21,07,00,8.70
2009,09,21,07,01,8.80
2009,09,21,07,02,8.80
2009,09,21,07,03,8.80
2009,09,21,07,04,8.90
2009,09,21,07,05,8.90
2009,09,21,07,06,8.80
2009,09,21,07,07,8.80
2009,09,21,07,08,8.80
2009,09,21,07,09,8.90
2009,09,21,07,10,8.90
2009,09,21,07,11,8.90
2009,09,21,07,12,9.00
2009,09,21,07,13,9.00
2009,09,21,07,14,9.00
2009,09,21,07,15,9.10
2009,09,21,07,16,9.10
2009,09,21,07,17,9.20
2009,09,21,07,18,9.20
2009,09,21,07,19,9.20
2009,09,21,07,20,9.20
2009,09,21,07,21,9.20
2009,09,21,07,22,9.20
2009,09,21,07,23,9.20
2009,09,21,07,24,9.20
2009,09,21,07,25,9.20
2009,09,21,07,26,9.20
2009,09,21,07,27,9.20
2009,09,21,07,28,9.20
2009,09,21,07,29,9.20
2009,09,21,07,30,9.20
2009,09,21,07,31,9.20
2009,09,21,07,32,9.20
2009,09,21,07,33,9.20
2009,09,21,07,34,9.30
2009,09,21,07,35,9.30
2009,09,21,07,36,9.30
2009,09,21,07,37,9.30
2009,09,21,07,38,9.40
2009,09,21,07,39,9.40
2009,09,21,07,40,9.40
2009,09,21,07,41,9.50
2009,09,21,07,42,9.50
2009,09,21,07,43,9.60
2009,09,21,07,44,9.60
2009,09,21,07,45,9.70
2009,09,21,07,46,9.70
2009,09,21,07,47,9.70
2009,09,21,07,48,9.80
2009,09,21,07,49,9.80
2009,09,21,07,50,9.90
2009,09,21,07,51,9.90
2009,09,21,07,52,9.90
2009,09,21,07,53,10.00
2009,09,21,07,54,10.10
2009,09,21,07,55,10.10
2009,09,21,07,56,10.20
2009,09,21,07,57,10.30
2009,09,21,07,58,10.40
2009,09,21,07,59,10.40
2009,09,21,08,00,10.50
2009,09,21,08,01,10.60
2009,09,21,08,02,10.60
2009,09,21,08,03,10.60
2009,09,21,08,04,10.60
2009,09,21,08,05,10.70
2009,09,21,08,06,10.80
2009,09,21,08,07,10.90
2009,09,21,08,08,10.90
2009,09,21,08,09,11.00
2009,09,21,08,10,11.10
2009,09,21,08,11,11.30
2009,09,21,08,12,11.40
2009,09,21,08,13,11.50
2009,09,21,08,14,11.60
2009,09,21,08,15,11.70
2009,09,21,08,16,11.80
2009,09,21,08,17,11.90
2009,09,21,08,18,12.10
2009,09,21,08,19,12.20
2009,09,21,08,20,12.30
2009,09,21,08,21,12.40
2009,09,21,08,22,12.50
2009,09,21,08,23,12.50
2009,09,21,08,24,12.60
2009,09,21,08,25,12.70
2009,09,21,08,26,12.80
2009,09,21,08,27,12.80
2009,09,21,08,28,12.90
2009,09,21,08,29,12.90
2009,09,21,08,30,13.00
2009,09,21,08,31,13.10
2009,09,21,08,32,13.10
2009,09,21,08,33,13.20
2009,09,21,08,34,13.30
2009,09,21,08,35,13.30
2009,09,21,08,36,13.50
2009,09,21,08,37,13.50
2009,09,21,08,38,13.60
2009,09,21,08,39,13.70
2009,09,21,08,40,13.70
2009,09,21,08,41,13.80
2009,09,21,08,42,13.90
2009,09,21,08,43,13.90
2009,09,21,08,44,14.00
2009,09,21,08,45,14.00
2009,09,21,08,46,14.10
2009,09,21,08,47,14.20
2009,09,21,08,48,14.20
2009,09,21,08,49,14.20
2009,09,21,08,50,14.20
2009,09,21,08,51,14.30
2009,09,21,08,52,14.30
2009,09,21,08,53,14.30
2009,09,21,08,54,14.40
2009,09,21,08,55,14.40
2009,09,21,08,56,14.30
2009,09,21,08,57,14.30
2009,09,21,08,58,14.40
2009,09,21,08,59,14.50
2009,09,21,09,00,14.50
2009,09,21,09,01,14.50
2009,09,21,09,02,14.50
2009,09,21,09,03,14.40
2009,09,21,09,04,14.40
2009,09,21,09,05,14.30
2009,09,21,09,06,14.30
2009,09,21,09,07,14.20
2009,09,21,09,08,14.20
2009,09,21,09,09,14.20
2009,09,21,09,10,14.20
2009,09,21,09,11,14.20
2009,09,21,09,12,14.10
2009,09,21,09,13,14.10
2009,09,21,09,14,14.10
2009,09,21,09,15,14.20
2009,09,21,09,16,14.20
2009,09,21,09,17,14.20
2009,09,21,09,18,14.20
2009,09,21,09,19,14.20
2009,09,21,09,20,14.20
2009,09,21,09,21,14.20
2009,09,21,09,22,14.20
2009,09,21,09,23,14.30
2009,09,21,09,24,14.30
2009,09,21,09,25,14.40
2009,09,21,09,26,14.40
2009,09,21,09,27,14.50
2009,09,21,09,28,14.50
2009,09,21,09,29,14.60
2009,09,21,09,30,14.60
2009,09,21,09,31,14.60
2009,09,21,09,32,14.60
2009,09,21,09,33,14.60
2009,09,21,09,34,14.70
2009,09,21,09,35,14.70
2009,09,21,09,36,14.70
2009,09,21,09,37,14.70
2009,09,21,09,38,14.70
2009,09,21,09,39,14.80
2009,09,21,09,40,14.80
2009,09,21,09,41,14.80
2009,09,21,09,42,14.80
2009,09,21,09,43,14.80
2009,09,21,09,44,14.80
2009,09,21,09,45,14.90
2009,09,21,09,46,14.90
2009,09,21,09,47,15.00
2009,09,21,09,48,15.00
2009,09,21,09,49,15.00
2009,09,21,09,50,15.00
2009,09,21,09,51,15.10
2009,09,21,09,52,15.10
2009,09,21,09,53,15.10
2009,09,21,09,54,15.10
2009,09,21,09,55,15.20
2009,09,21,09,56,15.20
2009,09,21,09,57,15.20
2009,09,21,09,58,15.20
2009,09,21,09,59,15.30
2009,09,21,10,00,15.30
2009,09,21,10,01,15.30
2009,09,21,10,02,15.30
2009,09,21,10,03,15.30
2009,09,21,10,04,15.30
2009,09,21,10,05,15.40
2009,09,21,10,06,15.50
2009,09,21,10,07,15.60
2009,09,21,10,08,15.60
2009,09,21,10,09,15.70
2009,09,21,10,10,15.70
2009,09,21,10,11,15.80
2009,09,21,10,12,15.80
2009,09,21,10,13,15.80
2009,09,21,10,14,15.80
2009,09,21,10,15,15.80
2009,09,21,10,16,15.80
2009,09,21,10,17,15.90
2009,09,21,10,18,15.90
2009,09,21,10,19,15.90
2009,09,21,10,20,15.90
2009,09,21,10,21,16.00
2009,09,21,10,22,16.10
2009,09,21,10,23,16.10
2009,09,21,10,24,16.20
2009,09,21,10,25,16.30
2009,09,21,10,26,16.40
2009,09,21,10,27,16.40
2009,09,21,10,28,16.50
2009,09,21,10,29,16.60
2009,09,21,10,30,16.60
2009,09,21,10,31,16.70
2009,09,21,10,32,16.70
2009,09,21,10,33,16.70
2009,09,21,10,34,16.70
2009,09,21,10,35,16.80
2009,09,21,10,36,16.90
2009,09,21,10,37,16.80
2009,09,21,10,38,16.80
2009,09,21,10,39,16.80
2009,09,21,10,40,16.80
2009,09,21,10,41,16.80
2009,09,21,10,42,16.90
2009,09,21,10,43,16.80
2009,09,21,10,44,16.70
2009,09,21,10,45,16.50
2009,09,21,10,46,16.40
2009,09,21,10,47,16.30
2009,09,21,10,48,16.30
2009,09,21,10,49,16.20
2009,09,21,10,50,16.10
2009,09,21,10,51,16.10
2009,09,21,10,52,16.10
2009,09,21,10,53,16.10
2009,09,21,10,54,16.20
2009,09,21,10,55,16.30
2009,09,21,10,56,16.50
2009,09,21,10,57,16.70
2009,09,21,10,58,16.80
2009,09,21,10,59,16.80
2009,09,21,11,00,16.80
2009,09,21,11,01,16.80
2009,09,21,11,02,16.80
2009,09,21,11,03,16.70
2009,09,21,11,04,16.70
2009,09,21,11,05,16.70
2009,09,21,11,06,16.80
2009,09,21,11,07,16.80
2009,09,21,11,08,16.70
2009,09,21,11,09,16.70
2009,09,21,11,10,16.70
2009,09,21,11,11,16.70
2009,09,21,11,12,16.70
2009,09,21,11,13,16.70
2009,09,21,11,14,16.70
2009,09,21,11,15,16.70
2009,09,21,11,16,16.80
2009,09,21,11,17,16.80
2009,09,21,11,18,16.80
2009,09,21,11,19,16.80
2009,09,21,11,20,16.80
2009,09,21,11,21,16.70
2009,09,21,11,22,16.80
2009,09,21,11,23,16.90
2009,09,21,11,24,17.00
2009,09,21,11,25,17.10
2009,09,21,11,26,17.10
2009,09,21,11,27,17.20
2009,09,21,11,28,17.30
2009,09,21,11,29,17.40
2009,09,21,11,30,17.50
2009,09,21,11,31,17.70
2009,09,21,11,32,17.80
2009,09,21,11,33,17.90
2009,09,21,11,34,17.90
2009,09,21,11,35,17.80
2009,09,21,11,36,17.80
2009,09,21,11,37,17.90
2009,09,21,11,38,17.90
2009,09,21,11,39,17.90
2009,09,21,11,40,18.00
2009,09,21,11,41,17.90
2009,09,21,11,42,17.90
2009,09,21,11,43,17.90
2009,09,21,11,44,17.90
2009,09,21,11,45,18.10
2009,09,21,11,46,17.90
2009,09,21,11,47,17.90
2009,09,21,11,48,17.90
2009,09,21,11,49,18.00
2009,09,21,11,50,18.10
2009,09,21,11,51,18.20
2009,09,21,11,52,18.20
2009,09,21,11,53,18.30
2009,09,21,11,54,18.30
2009,09,21,11,55,18.30
2009,09,21,11,56,18.40
2009,09,21,11,57,18.40
2009,09,21,11,58,18.40
2009,09,21,11,59,18.40
2009,09,21,12,00,18.40
2009,09,21,12,01,18.50
2009,09,21,12,02,18.50
2009,09,21,12,03,18.30
2009,09,21,12,04,18.30
2009,09,21,12,05,18.30
2009,09,21,12,06,18.20
2009,09,21,12,07,18.20
2009,09,21,12,08,18.10
2009,09,21,12,09,18.10
2009,09,21,12,10,18.10
2009,09,21,12,11,18.10
2009,09,21,12,12,18.20
2009,09,21,12,13,18.10
2009,09,21,12,14,17.90
2009,09,21,12,15,17.90
2009,09,21,12,16,18.10
2009,09,21,12,17,18.10
2009,09,21,12,18,18.20
2009,09,21,12,19,18.10
2009,09,21,12,20,18.10
2009,09,21,12,21,18.10
2009,09,21,12,22,18.20
2009,09,21,12,23,18.10
2009,09,21,12,24,18.20
2009,09,21,12,25,18.20
2009,09,21,12,26,18.20
2009,09,21,12,27,18.20
2009,09,21,12,28,18.20
2009,09,21,12,29,18.30
2009,09,21,12,30,18.40
2009,09,21,12,31,18.50
2009,09,21,12,32,18.50
2009,09,21,12,33,18.50
2009,09,21,12,34,18.40
2009,09,21,12,35,18.20
2009,09,21,12,36,18.00
2009,09,21,12,37,17.90
2009,09,21,12,38,17.90
2009,09,21,12,39,17.90
2009,09,21,12,40,17.90
2009,09,21,12,41,18.10
2009,09,21,12,42,18.10
2009,09,21,12,43,18.10
2009,09,21,12,44,18.10
2009,09,21,12,45,18.10
2009,09,21,12,46,18.20
2009,09,21,12,47,18.10
2009,09,21,12,48,18.10
2009,09,21,12,49,18.10
2009,09,21,12,50,18.10
2009,09,21,12,51,18.10
2009,09,21,12,52,18.20
2009,09,21,12,53,18.20
2009,09,21,12,54,18.10
2009,09,21,12,55,18.10
2009,09,21,12,56,18.10
2009,09,21,12,57,18.20
2009,09,21,12,58,18.20
2009,09,21,12,59,18.20
2009,09,21,13,00,18.20
2009,09,21,13,01,18.20
2009,09,21,13,02,18.20
2009,09,21,13,03,18.20
2009,09,21,13,04,18.30
2009,09,21,13,05,18.30
2009,09,21,13,06,18.40
2009,09,21,13,07,18.30
2009,09,21,13,08,18.20
2009,09,21,13,09,18.20
2009,09,21,13,10,18.20
2009,09,21,13,11,18.10
2009,09,21,13,12,18.10
2009,09,21,13,13,18.20
2009,09,21,13,14,18.20
2009,09,21,13,15,18.30
2009,09,21,13,16,18.30
2009,09,21,13,17,18.40
2009,09,21,13,18,18.40
2009,09,21,13,19,18.40
2009,09,21,13,20,18.40
2009,09,21,13,21,18.50
2009,09,21,13,22,18.50
2009,09,21,13,23,18.70
2009,09,21,13,24,18.70
2009,09,21,13,25,18.80
2009,09,21,13,26,18.70
2009,09,21,13,27,18.70
2009,09,21,13,28,18.60
2009,09,21,13,29,18.60
2009,09,21,13,30,18.60
2009,09,21,13,31,18.60
2009,09,21,13,32,18.50
2009,09,21,13,33,18.60
2009,09,21,13,34,18.60
2009,09,21,13,35,18.60
2009,09,21,13,36,18.60
2009,09,21,13,37,18.70
2009,09,21,13,38,18.70
2009,09,21,13,39,18.70
2009,09,21,13,40,18.70
2009,09,21,13,41,18.70
2009,09,21,13,42,18.60
2009,09,21,13,43,18.50
2009,09,21,13,44,18.50
2009,09,21,13,45,18.40
2009,09,21,13,46,18.40
2009,09,21,13,47,18.50
2009,09,21,13,48,18.50
2009,09,21,13,49,18.50
2009,09,21,13,50,18.50
2009,09,21,13,51,18.50
2009,09,21,13,52,18.50
2009,09,21,13,53,18.60
2009,09,21,13,54,18.70
2009,09,21,13,55,18.70
2009,09,21,13,56,18.80
2009,09,21,13,57,18.90
2009,09,21,13,58,18.90
2009,09,21,13,59,18.90
2009,09,21,14,00,18.80
2009,09,21,14,01,18.90
2009,09,21,14,02,18.90
2009,09,21,14,03,18.80
2009,09,21,14,04,18.90
2009,09,21,14,05,18.90
2009,09,21,14,06,18.90
2009,09,21,14,07,18.80
2009,09,21,14,08,18.70
2009,09,21,14,09,18.60
2009,09,21,14,10,18.50
2009,09,21,14,11,18.40
2009,09,21,14,12,18.40
2009,09,21,14,13,18.40
2009,09,21,14,14,18.40
2009,09,21,14,15,18.50
2009,09,21,14,16,18.60
2009,09,21,14,17,18.70
2009,09,21,14,18,18.70
2009,09,21,14,19,18.70
2009,09,21,14,20,18.70
2009,09,21,14,21,18.60
2009,09,21,14,22,18.50
2009,09,21,14,23,18.40
2009,09,21,14,24,18.30
2009,09,21,14,25,18.30
2009,09,21,14,26,18.30
2009,09,21,14,27,18.40
2009,09,21,14,28,18.50
2009,09,21,14,29,18.60
2009,09,21,14,30,18.60
2009,09,21,14,31,18.60
2009,09,21,14,32,18.60
2009,09,21,14,33,18.60
2009,09,21,14,34,18.70
2009,09,21,14,35,18.80
2009,09,21,14,36,18.80
2009,09,21,14,37,18.70
2009,09,21,14,38,18.70
2009,09,21,14,39,18.70
2009,09,21,14,40,18.70
2009,09,21,14,41,18.60
2009,09,21,14,42,18.60
2009,09,21,14,43,18.50
2009,09,21,14,44,18.60
2009,09,21,14,45,18.50
2009,09,21,14,46,18.50
2009,09,21,14,47,18.40
2009,09,21,14,48,18.50
2009,09,21,14,49,18.50
2009,09,21,14,50,18.50
2009,09,21,14,51,18.60
2009,09,21,14,52,18.60
2009,09,21,14,53,18.60
2009,09,21,14,54,18.60
2009,09,21,14,55,18.70
2009,09,21,14,56,18.80
2009,09,21,14,57,18.80
2009,09,21,14,58,18.90
2009,09,21,14,59,18.90
2009,09,21,15,00,18.90
2009,09,21,15,01,18.90
2009,09,21,15,02,18.90
2009,09,21,15,03,19.00
2009,09,21,15,04,19.00
2009,09,21,15,05,19.10
2009,09,21,15,06,19.10
2009,09,21,15,07,19.10
2009,09,21,15,08,19.10
2009,09,21,15,09,19.10
2009,09,21,15,10,19.10
2009,09,21,15,11,19.10
2009,09,21,15,12,19.20
2009,09,21,15,13,19.20
2009,09,21,15,14,19.20
2009,09,21,15,15,19.20
2009,09,21,15,16,19.30
2009,09,21,15,17,19.30
2009,09,21,15,18,19.30
2009,09,21,15,19,19.40
2009,09,21,15,20,19.50
2009,09,21,15,21,19.60
2009,09,21,15,22,19.70
2009,09,21,15,23,19.60
2009,09,21,15,24,19.60
2009,09,21,15,25,19.60
2009,09,21,15,26,19.60
2009,09,21,15,27,19.60
2009,09,21,15,28,19.60
2009,09,21,15,29,19.60
2009,09,21,15,30,19.60
2009,09,21,15,31,19.60
2009,09,21,15,32,19.60
2009,09,21,15,33,19.70
2009,09,21,15,34,19.80
2009,09,21,15,35,19.80
2009,09,21,15,36,19.90
2009,09,21,15,37,19.90
2009,09,21,15,38,19.90
2009,09,21,15,39,20.00
2009,09,21,15,40,20.10
2009,09,21,15,41,20.10
2009,09,21,15,42,20.20
2009,09,21,15,43,20.20
2009,09,21,15,44,20.20
2009,09,21,15,45,20.30
2009,09,21,15,46,20.30
2009,09,21,15,47,20.30
2009,09,21,15,48,20.30
2009,09,21,15,49,20.40
2009,09,21,15,50,20.40
2009,09,21,15,51,20.30
2009,09,21,15,52,20.30
2009,09,21,15,53,20.30
2009,09,21,15,54,20.30
2009,09,21,15,55,20.30
2009,09,21,15,56,20.30
2009,09,21,15,57,20.20
2009,09,21,15,58,20.30
2009,09,21,15,59,20.30
2009,09,21,16,00,20.30
2009,09,21,16,01,20.30
2009,09,21,16,02,20.30
2009,09,21,16,03,20.30
2009,09,21,16,04,20.20
2009,09,21,16,05,20.20
2009,09,21,16,06,20.20
2009,09,21,16,07,20.20
2009,09,21,16,08,20.20
2009,09,21,16,09,20.20
2009,09,21,16,10,20.20
2009,09,21,16,11,20.30
2009,09,21,16,12,20.20
2009,09,21,16,13,20.20
2009,09,21,16,14,20.10
2009,09,21,16,15,20.00
2009,09,21,16,16,19.90
2009,09,21,16,17,19.90
2009,09,21,16,18,19.90
2009,09,21,16,19,19.90
2009,09,21,16,20,19.90
2009,09,21,16,21,19.90
2009,09,21,16,22,19.90
2009,09,21,16,23,19.80
2009,09,21,16,24,19.80
2009,09,21,16,25,19.80
2009,09,21,16,26,19.90
2009,09,21,16,27,19.90
2009,09,21,16,28,19.90
2009,09,21,16,29,20.00
2009,09,21,16,30,20.10
2009,09,21,16,31,20.20
2009,09,21,16,32,20.20
2009,09,21,16,33,20.20
2009,09,21,16,34,20.20
2009,09,21,16,35,20.30
2009,09,21,16,36,20.30
2009,09,21,16,37,20.30
2009,09,21,16,38,20.40
2009,09,21,16,39,20.40
2009,09,21,16,40,20.50
2009,09,21,16,41,20.60
2009,09,21,16,42,20.60
2009,09,21,16,43,20.70
2009,09,21,16,44,20.70
2009,09,21,16,45,20.80
2009,09,21,16,46,20.80
2009,09,21,16,47,20.70
2009,09,21,16,48,20.60
2009,09,21,16,49,20.50
2009,09,21,16,50,20.50
2009,09,21,16,51,20.50
2009,09,21,16,52,20.50
2009,09,21,16,53,20.50
2009,09,21,16,54,20.50
2009,09,21,16,55,20.50
2009,09,21,16,56,20.50
2009,09,21,16,57,20.40
2009,09,21,16,58,20.40
2009,09,21,16,59,20.30
2009,09,21,17,00,20.30
2009,09,21,17,01,20.30
2009,09,21,17,02,20.20
2009,09,21,17,03,20.30
2009,09,21,17,04,20.30
2009,09,21,17,05,20.30
2009,09,21,17,06,20.40
2009,09,21,17,07,20.40
2009,09,21,17,08,20.40
2009,09,21,17,09,20.40
2009,09,21,17,10,20.30
2009,09,21,17,11,20.30
2009,09,21,17,12,20.20
2009,09,21,17,13,20.20
2009,09,21,17,14,20.20
2009,09,21,17,15,20.20
2009,09,21,17,16,20.20
2009,09,21,17,17,20.20
2009,09,21,17,18,20.10
2009,09,21,17,19,20.10
2009,09,21,17,20,20.00
2009,09,21,17,21,19.90
2009,09,21,17,22,20.00
2009,09,21,17,23,20.00
2009,09,21,17,24,19.90
2009,09,21,17,25,19.90
2009,09,21,17,26,19.90
2009,09,21,17,27,19.90
2009,09,21,17,28,19.90
2009,09,21,17,29,19.90
2009,09,21,17,30,19.90
2009,09,21,17,31,19.90
2009,09,21,17,32,19.90
2009,09,21,17,33,20.10
2009,09,21,17,34,20.10
2009,09,21,17,35,20.00
2009,09,21,17,36,19.90
2009,09,21,17,37,19.90
2009,09,21,17,38,19.90
2009,09,21,17,39,19.90
2009,09,21,17,40,19.90